period_start,C,m1,H,J0,J1,J2,J3,J4,J5,JA,JB,JC,JD,JJ,JK,JN,#
2017-10-20 00:03:59,0.00,0.00,0.00,15.71,18.94,21.97,14.40,45.76,1031.72,2062.95,3607.75,3151.26,3611.02,599.49,619.69,0.01,0000 0000 0000 0000 000000
2017-10-20 00:09:00,0.00,0.00,0.00,15.73,18.94,22.00,14.45,45.79,1031.66,2062.73,3605.82,3150.47,3610.98,599.91,620.02,0.06,0001 0000 0000 0000 000000
2017-10-20 00:14:01,0.00,0.00,0.00,15.73,18.94,21.98,14.44,45.72,1031.64,2062.70,3605.05,3150.20,3610.94,599.94,619.99,0.11,0000 0000 0000 0000 000000
2017-10-20 00:19:02,0.00,0.00,0.00,15.74,18.94,21.97,14.48,45.70,1031.68,2062.89,3604.89,3150.07,3610.64,599.92,620.16,0.16,0000 0000 0000 0000 000000
2017-10-20 00:24:03,0.00,0.00,0.00,15.74,18.94,21.98,14.53,45.64,1031.68,2062.92,3604.09,3150.01,3610.23,600.19,620.27,0.21,0000 0000 0000 0000 000000
2017-10-20 00:29:04,0.01,0.00,0.00,15.75,18.94,21.96,14.46,45.83,1031.70,2062.92,3603.26,3149.99,3610.00,600.02,620.15,0.26,0000 0000 0000 0000 000000
2017-10-20 00:34:06,0.00,0.00,0.00,15.77,18.94,21.97,14.54,45.74,1031.72,2062.93,3603.00,3149.95,3609.98,600.00,619.94,0.31,0000 0000 0000 0000 000000
2017-10-20 00:39:07,0.00,0.00,0.00,15.78,18.94,21.99,14.42,45.73,1031.73,2062.95,3602.89,3149.85,3609.96,599.71,619.63,0.36,0000 0000 0000 0000 000000
2017-10-20 00:44:09,0.02,0.00,0.00,15.80,18.96,21.97,14.49,45.71,1031.73,2062.97,3602.25,3149.52,3609.83,600.06,620.02,0.41,0000 0000 0000 0000 000000
2017-10-20 00:49:10,0.01,0.00,0.00,15.82,18.97,21.99,14.48,45.74,1031.74,2062.96,3602.02,3149.11,3609.31,600.23,620.15,0.46,0000 0000 0000 0000 000000
2017-10-20 00:54:12,-0.00,0.00,0.00,15.87,18.98,21.99,14.44,45.84,1031.75,2062.96,3602.01,3149.06,3609.03,600.07,619.77,0.51,0000 0000 0000 0000 000000
2017-10-20 00:59:13,0.00,0.00,0.00,15.90,18.99,22.02,14.41,45.77,1031.74,2062.95,3601.97,3149.01,3609.01,599.77,619.60,0.57,0000 0000 0000 0000 000000
2017-10-20 01:04:14,0.00,0.00,0.00,15.92,19.01,22.02,14.45,45.91,1031.73,2062.95,3601.93,3149.00,3609.00,599.91,619.54,0.62,0000 0000 0000 0000 000000
2017-10-20 01:09:15,-0.02,0.00,0.00,15.94,19.02,22.04,14.46,45.74,1031.70,2062.63,3601.32,3148.99,3608.91,600.11,619.71,0.67,0000 0000 0000 0000 000000
2017-10-20 01:14:17,-0.02,0.00,0.00,15.97,19.04,22.04,14.44,45.77,1031.63,2062.15,3601.03,3148.97,3608.27,599.98,619.56,0.72,0000 0000 0000 0000 000000
2017-10-20 01:19:18,0.00,0.00,0.00,16.00,19.05,22.06,14.50,45.92,1031.56,2062.03,3601.00,3148.75,3608.02,600.09,619.58,0.77,0000 0000 0000 0000 000000
2017-10-20 01:24:19,0.01,0.00,0.00,16.00,19.07,22.09,14.56,45.85,1031.59,2062.05,3600.96,3148.32,3608.00,600.44,619.94,0.82,0000 0000 0000 0000 000000
2017-10-20 01:29:20,0.02,0.00,0.00,16.02,19.08,22.11,14.49,45.87,1031.69,2062.04,3600.32,3148.04,3608.00,600.11,619.38,0.87,0000 0000 0000 0000 000000
2017-10-20 01:34:22,0.00,0.00,0.00,16.03,19.09,22.10,14.41,45.83,1031.66,2062.05,3600.00,3148.00,3607.98,599.95,619.39,0.92,0000 0000 0000 0000 000000
2017-10-20 01:39:23,0.01,0.00,0.00,16.06,19.11,22.15,14.37,45.77,1031.65,2062.02,3599.94,3148.00,3607.47,599.96,619.37,0.97,0000 0000 0000 0000 000000
2017-10-20 01:44:24,0.01,0.00,0.00,16.07,19.12,22.14,14.41,45.73,1031.54,2062.00,3599.62,3147.97,3607.02,599.78,618.99,1.02,0000 0000 0000 0000 000000
2017-10-20 01:49:25,0.01,0.00,0.00,16.04,19.14,22.14,14.44,45.84,1031.37,2062.00,3599.26,3147.77,3607.00,600.04,619.21,1.07,0000 0000 0000 0000 000000
2017-10-20 01:54:27,0.01,0.00,0.00,16.09,19.16,22.19,14.53,46.03,1031.44,2061.99,3599.24,3147.48,3606.90,600.26,619.39,1.12,0000 0000 0000 0000 000000
2017-10-20 01:59:28,0.02,0.00,0.00,16.11,19.17,22.18,14.41,45.67,1031.39,2061.96,3599.05,3147.06,3606.25,599.90,618.96,1.17,0000 0000 0000 0000 000000
2017-10-20 02:04:29,0.00,0.01,0.00,16.11,19.19,22.24,14.48,45.93,1031.36,2061.95,3599.00,3147.02,3606.03,599.90,618.91,1.22,0000 0000 0000 0000 000000
2017-10-20 02:09:30,0.00,0.01,0.00,16.13,19.20,22.24,14.47,45.90,1031.32,2061.95,3598.95,3147.00,3606.00,599.98,618.98,1.27,0000 0000 0000 0000 000000
2017-10-20 02:14:31,-0.00,0.01,0.00,16.13,19.22,22.24,14.54,45.88,1031.38,2061.85,3598.48,3146.99,3605.99,600.48,619.55,1.32,0000 0000 0000 0000 000000
2017-10-20 02:19:32,0.00,0.00,0.00,16.16,19.23,22.27,14.45,45.73,1031.46,2061.73,3598.05,3146.96,3605.92,599.76,618.79,1.37,0000 0000 0000 0000 000000
2017-10-20 02:24:34,-0.01,0.00,0.00,16.17,19.24,22.26,14.50,45.86,1031.39,2061.40,3597.98,3146.48,3605.30,600.13,619.05,1.42,0000 0000 0000 0000 000000
2017-10-20 02:29:35,0.05,0.01,0.00,16.17,19.25,22.28,14.42,45.84,1031.30,2061.50,3597.66,3146.07,3605.04,599.79,618.74,1.47,0000 0000 0000 0000 000000
2017-10-20 02:34:36,-0.01,0.01,0.00,16.18,19.27,22.29,14.43,45.77,1031.32,2061.32,3597.05,3146.00,3605.00,600.39,619.20,1.52,0000 0000 0000 0000 000000
2017-10-20 02:39:37,-0.03,0.00,0.00,16.21,19.28,22.28,14.47,45.95,1031.30,2061.09,3597.02,3146.00,3604.96,600.11,619.01,1.57,0000 0000 0000 0000 000000
2017-10-20 02:44:38,0.00,0.00,0.00,16.22,19.29,22.31,14.44,45.81,1031.30,2061.03,3597.00,3145.98,3604.73,600.18,618.91,1.62,0000 0000 0000 0000 000000
2017-10-20 02:49:40,0.01,0.01,0.00,16.24,19.31,22.37,14.44,45.88,1031.30,2061.02,3596.99,3145.97,3604.13,599.88,618.57,1.67,0000 0000 0000 0000 000000
2017-10-20 02:54:41,0.00,0.01,0.00,16.24,19.32,22.37,14.42,45.92,1031.30,2061.00,3596.86,3145.88,3604.04,599.84,618.63,1.72,0000 0000 0000 0000 000000
2017-10-20 02:59:42,0.01,0.01,0.00,16.27,19.34,22.34,14.46,45.91,1031.29,2061.00,3596.58,3145.34,3604.00,600.21,618.81,1.77,0000 0000 0000 0000 000000
2017-10-20 03:04:44,0.01,0.01,0.00,16.30,19.35,22.37,14.40,45.82,1031.28,2061.00,3596.15,3145.10,3603.99,599.91,618.52,1.82,0000 0000 0000 0000 000000
2017-10-20 03:09:45,0.00,0.01,0.00,16.30,19.37,22.38,14.43,45.65,1031.28,2061.00,3596.01,3145.02,3603.96,599.92,618.58,1.87,0000 0000 0000 0000 000000
2017-10-20 03:14:46,0.01,0.01,0.00,16.31,19.39,22.42,14.37,45.72,1031.28,2061.00,3596.00,3145.00,3603.42,599.76,618.38,1.92,0000 0000 0000 0000 000000
2017-10-20 03:19:48,0.00,0.01,0.00,16.33,19.40,22.42,14.34,45.68,1031.27,2060.97,3595.98,3145.00,3603.03,599.85,618.45,1.97,0000 0000 0000 0000 000000
2017-10-20 03:24:49,0.01,0.01,0.00,16.36,19.42,22.44,14.43,45.83,1031.27,2060.97,3595.64,3144.98,3603.00,600.05,618.52,2.02,0000 0000 0000 0000 000000
2017-10-20 03:29:50,0.00,0.01,0.00,16.37,19.43,22.47,14.44,45.77,1031.27,2060.97,3595.03,3144.84,3603.00,600.16,618.68,2.07,0000 0000 0000 0000 000000
2017-10-20 03:34:51,0.02,0.01,0.00,16.36,19.44,22.41,14.34,45.77,1031.27,2060.97,3594.87,3144.25,3603.00,599.80,618.36,2.12,0000 0000 0000 0000 000000
2017-10-20 03:39:52,0.01,0.01,0.00,16.39,19.46,22.45,14.46,45.75,1031.28,2060.98,3594.25,3144.03,3602.94,600.04,618.37,2.17,0000 0000 0000 0000 000000
2017-10-20 03:44:53,-0.01,0.01,0.00,16.42,19.47,22.50,14.43,45.72,1031.27,2060.87,3594.59,3144.01,3602.27,600.17,618.41,2.22,0000 0000 0000 0000 000000
2017-10-20 03:49:55,-0.04,0.01,0.00,16.41,19.49,22.50,14.49,45.98,1031.28,2060.43,3594.07,3144.00,3602.02,600.32,618.73,2.27,0000 0000 0000 0000 000000
2017-10-20 03:54:55,-0.02,0.01,0.00,16.43,19.50,22.52,14.41,45.75,1031.34,2060.07,3594.00,3143.98,3601.97,600.11,618.55,2.32,0000 0000 0000 0000 000000
2017-10-20 03:59:57,0.01,0.01,0.00,16.48,19.52,22.51,14.40,45.81,1031.47,2060.04,3593.92,3143.69,3601.92,600.10,618.44,2.37,0000 0000 0000 0000 000000
2017-10-20 04:04:58,0.02,0.01,0.00,16.51,19.54,22.54,14.44,45.84,1031.42,2060.05,3593.19,3143.21,3601.78,599.92,618.19,2.42,0000 0000 0000 0000 000000
2017-10-20 04:10:00,0.01,0.01,0.00,16.50,19.55,22.56,14.38,45.74,1031.51,2060.03,3593.01,3143.03,3601.21,599.69,618.06,2.47,0000 0000 0000 0000 000000
2017-10-20 04:15:01,0.00,0.01,0.00,16.52,19.57,22.54,14.46,45.80,1031.48,2060.03,3593.00,3143.00,3601.02,600.18,618.49,2.52,0000 0000 0000 0000 000000
2017-10-20 04:20:02,0.00,0.01,0.00,16.52,19.58,22.57,14.49,45.77,1031.45,2060.01,3592.98,3142.99,3601.00,600.17,618.37,2.57,0000 0000 0000 0000 000000
2017-10-20 04:25:03,0.01,0.01,0.00,16.47,19.59,22.61,14.45,45.93,1031.60,2060.01,3592.60,3142.98,3601.00,600.22,618.59,2.62,0000 0000 0000 0000 000000
2017-10-20 04:30:05,0.01,0.01,0.00,16.47,19.62,22.60,14.50,45.86,1031.65,2060.00,3592.37,3142.93,3600.81,600.13,618.63,2.67,0000 0000 0000 0000 000000
2017-10-20 04:35:06,0.01,0.01,0.00,16.51,19.62,22.63,14.36,45.74,1031.50,2060.00,3592.14,3142.71,3600.06,599.69,618.08,2.72,0000 0000 0000 0000 000000
2017-10-20 04:40:08,0.01,0.01,0.00,16.51,19.64,22.63,14.44,45.67,1031.46,2059.98,3592.02,3142.27,3600.00,600.27,618.58,2.77,0000 0000 0000 0000 000000
2017-10-20 04:45:09,0.00,0.01,0.00,16.49,19.64,22.64,14.45,45.82,1031.39,2059.97,3592.00,3142.04,3600.00,600.17,618.47,2.82,0000 0000 0000 0000 000000
2017-10-20 04:50:10,0.00,0.01,0.00,16.49,19.65,22.66,14.43,45.74,1031.31,2059.98,3591.83,3142.00,3599.98,600.08,618.20,2.87,0000 0000 0000 0000 000000
2017-10-20 04:55:11,0.01,0.01,0.00,16.51,19.66,22.66,14.49,45.77,1031.33,2059.98,3591.10,3141.99,3599.86,600.32,618.50,2.92,0000 0000 0000 0000 000000
2017-10-20 05:00:13,0.02,0.01,0.00,16.49,19.67,22.66,14.35,45.74,1031.31,2059.97,3590.87,3141.76,3599.25,599.88,618.07,2.98,0000 0000 0000 0000 000000
2017-10-20 05:05:14,0.01,0.01,0.00,16.50,19.67,22.69,14.50,45.82,1031.34,2059.95,3590.55,3141.21,3599.00,600.07,618.36,3.03,0000 0000 0000 0000 000000
2017-10-20 05:10:15,0.01,0.02,0.00,16.49,19.67,22.70,14.44,45.85,1031.36,2059.92,3590.01,3141.00,3598.94,600.18,618.40,3.08,0000 0000 0000 0000 000000
2017-10-20 05:15:16,0.00,0.02,0.00,16.49,19.69,22.71,14.40,45.73,1031.29,2059.87,3589.96,3141.00,3598.40,600.04,618.29,3.13,0000 0000 0000 0000 000000
2017-10-20 05:20:18,-0.05,0.01,0.00,16.47,19.69,22.72,14.42,45.79,1031.29,2059.37,3589.77,3140.98,3598.02,599.85,618.13,3.18,0000 0000 0000 0000 000000
2017-10-20 05:25:19,0.07,0.02,0.00,16.48,19.69,22.72,14.46,45.86,1031.27,2059.54,3589.03,3140.71,3598.00,599.67,617.89,3.23,0000 0000 0000 0000 000000
2017-10-20 05:30:20,-0.02,0.02,0.00,16.50,19.70,22.71,14.46,45.73,1031.27,2059.44,3589.00,3140.25,3597.98,600.30,618.39,3.28,0000 0000 0000 0000 000000
2017-10-20 05:35:21,0.01,0.02,0.00,16.44,19.72,22.71,14.43,45.77,1031.28,2059.26,3588.69,3140.01,3597.67,599.96,618.31,3.33,0000 0000 0000 0000 000000
2017-10-20 05:40:23,0.02,0.02,0.00,16.46,19.72,22.71,14.47,45.78,1031.28,2059.24,3588.02,3139.99,3597.08,600.39,618.62,3.38,0000 0000 0000 0000 000000
2017-10-20 05:45:24,0.02,0.02,0.00,16.48,19.72,22.74,14.55,45.87,1031.27,2059.16,3587.56,3139.64,3597.00,600.56,618.67,3.43,0000 0000 0000 0000 000000
2017-10-20 05:50:26,0.02,0.02,0.00,16.47,19.72,22.72,14.43,45.79,1031.27,2059.17,3587.03,3139.07,3596.70,599.86,618.11,3.48,0000 0000 0000 0000 000000
2017-10-20 05:55:27,-0.00,0.02,0.00,16.46,19.72,22.72,14.49,45.73,1031.27,2059.10,3587.00,3139.02,3596.20,600.36,618.80,3.53,0000 0000 0000 0000 000000
2017-10-20 06:00:28,-0.00,0.02,0.00,16.48,19.74,22.76,14.45,45.78,1031.27,2059.04,3586.98,3139.01,3596.03,599.82,618.16,3.58,0000 0000 0000 0000 000000
2017-10-20 06:05:30,0.01,0.02,0.00,16.49,19.74,22.73,14.45,45.89,1031.28,2059.08,3586.52,3138.99,3596.02,599.90,618.07,3.63,0000 0000 0000 0000 000000
2017-10-20 06:10:31,0.02,0.02,0.00,16.47,19.74,22.75,14.40,45.83,1031.28,2059.21,3586.11,3138.99,3596.02,599.76,618.04,3.68,0000 0000 0000 0000 000000
2017-10-20 06:15:32,-0.00,0.02,0.00,16.48,19.74,22.75,14.43,45.85,1031.27,2059.21,3586.02,3138.97,3596.00,599.91,618.14,3.73,0000 0000 0000 0000 000000
2017-10-20 06:20:34,-0.00,0.02,0.00,16.49,19.75,22.75,14.46,45.71,1031.28,2059.13,3586.00,3138.94,3595.99,600.30,618.56,3.78,0000 0000 0000 0000 000000
2017-10-20 06:25:35,0.00,0.02,0.00,16.47,19.76,22.75,14.45,45.80,1031.28,2059.08,3586.00,3138.78,3595.96,600.14,618.43,3.83,0000 0000 0000 0000 000000
2017-10-20 06:30:36,0.01,0.02,0.00,16.46,19.77,22.76,14.40,45.83,1031.31,2059.03,3585.98,3138.40,3595.61,599.92,618.38,3.88,0000 0000 0000 0000 000000
2017-10-20 06:35:37,0.02,0.02,0.00,16.48,19.77,22.79,14.44,45.88,1031.34,2059.00,3585.66,3138.03,3595.00,600.33,618.62,3.93,0000 0000 0000 0000 000000
2017-10-20 06:40:39,0.02,0.02,0.00,16.48,19.77,22.79,14.45,45.92,1031.34,2059.00,3584.88,3137.85,3594.21,600.30,618.61,3.98,0000 0000 0000 0000 000000
2017-10-20 06:45:40,0.03,0.02,0.00,16.45,19.77,22.79,14.44,45.93,1031.40,2059.00,3584.06,3137.10,3594.00,600.09,618.43,4.03,0000 0000 0000 0000 000000
2017-10-20 06:50:41,0.02,0.02,0.00,16.46,19.76,22.80,14.45,45.89,1031.52,2059.00,3583.60,3136.99,3593.70,599.83,618.28,4.08,0000 0000 0000 0000 000000
2017-10-20 06:55:43,0.01,0.03,0.00,16.46,19.75,22.79,14.52,45.97,1031.50,2059.00,3583.01,3136.75,3593.07,600.41,618.77,4.13,0000 0000 0000 0000 000000
2017-10-20 07:00:44,0.02,0.03,0.00,16.41,19.74,22.79,14.43,46.02,1031.57,2059.00,3582.39,3136.11,3592.96,600.11,618.70,4.18,0000 0000 0000 0000 000000
2017-10-20 07:05:45,0.01,0.03,0.00,16.41,19.74,22.80,14.38,45.74,1031.57,2059.00,3581.99,3135.99,3592.43,599.62,618.16,4.23,0000 0000 0000 0000 000000
2017-10-20 07:10:46,0.02,0.03,0.00,16.41,19.72,22.84,14.45,45.79,1031.55,2059.00,3581.39,3135.82,3592.02,599.53,618.22,4.28,0000 0000 0000 0000 000000
2017-10-20 07:15:48,0.01,0.03,0.00,16.39,19.72,22.79,14.42,45.78,1031.60,2059.00,3581.00,3135.17,3591.97,600.02,618.58,4.33,0000 0000 0000 0000 000000
2017-10-20 07:20:49,0.01,0.03,0.00,16.38,19.70,22.83,14.42,45.81,1031.68,2059.00,3580.63,3135.01,3591.88,600.02,618.72,4.38,0000 0000 0000 0000 000000
2017-10-20 07:25:50,0.01,0.03,0.00,16.37,19.69,22.86,14.46,45.80,1031.66,2059.02,3580.05,3135.00,3591.59,600.05,618.68,4.43,0000 0000 0000 0000 000000
2017-10-20 07:30:51,0.00,0.03,0.00,16.37,19.68,22.85,14.43,45.84,1031.63,2059.03,3579.98,3135.00,3591.21,600.31,619.03,4.48,0000 0000 0000 0000 000000
2017-10-20 07:35:52,0.01,0.03,0.00,16.33,19.67,22.88,14.46,45.91,1031.66,2059.05,3579.39,3134.99,3591.01,599.99,618.77,4.53,0000 0000 0000 0000 000000
2017-10-20 07:40:54,0.01,0.03,0.00,16.34,19.66,22.84,14.44,45.87,1031.71,2059.10,3578.98,3134.90,3591.00,600.06,618.80,4.58,0000 0000 0000 0000 000000
2017-10-20 07:45:55,0.03,0.03,0.00,16.33,19.64,22.83,14.50,45.89,1031.70,2059.23,3578.86,3134.43,3590.99,600.13,619.03,4.63,0000 0000 0000 0000 000000
2017-10-20 07:50:56,0.02,0.04,0.00,16.30,19.64,22.85,14.49,45.91,1031.73,2059.42,3578.63,3134.26,3590.93,599.89,618.76,4.68,0000 0000 0000 0000 000000
2017-10-20 07:55:58,0.02,0.04,0.00,16.30,19.63,22.81,14.44,45.88,1031.75,2059.43,3578.05,3134.03,3590.47,599.89,618.77,4.73,0000 0000 0000 0000 000000
2017-10-20 08:00:59,0.01,0.04,0.00,16.30,19.62,22.81,14.50,45.96,1031.74,2059.38,3578.00,3134.00,3590.01,600.02,618.90,4.78,0000 0000 0000 0000 000000
2017-10-20 08:06:00,0.01,0.04,0.00,16.29,19.62,22.79,14.50,45.90,1031.72,2059.49,3577.57,3133.99,3589.99,600.09,618.93,4.83,0000 0000 0000 0000 000000
2017-10-20 08:11:01,0.05,0.04,0.00,16.27,19.60,22.82,14.42,45.81,1031.74,2059.78,3577.01,3133.78,3589.97,600.33,619.18,4.88,0000 0000 0000 0000 000000
2017-10-20 08:16:03,0.03,0.04,0.00,16.25,19.59,22.79,14.42,45.82,1031.74,2059.94,3576.65,3133.18,3589.87,599.90,618.95,4.93,0000 0000 0000 0000 000000
2017-10-20 08:21:04,0.01,0.04,0.00,16.27,19.59,22.83,14.49,45.88,1031.75,2059.90,3576.13,3133.00,3588.98,600.06,619.09,4.98,0000 0000 0000 0000 000000
2017-10-20 08:26:05,0.02,0.04,0.00,16.25,19.57,22.77,14.46,45.74,1031.75,2059.59,3575.11,3132.17,3587.91,600.08,619.03,5.03,0000 0000 0000 0000 000000
2017-10-20 08:31:06,0.06,0.05,0.00,16.22,19.57,22.76,14.44,45.89,1031.75,2059.60,3573.80,3131.48,3587.04,600.07,619.10,5.08,0000 0000 0000 0000 000000
2017-10-20 08:36:08,0.07,0.05,0.00,16.20,19.55,22.79,14.38,45.80,1031.73,2059.84,3572.64,3130.87,3586.30,599.61,618.68,5.13,0000 0000 0000 0000 000000
2017-10-20 08:41:09,0.04,0.05,0.00,16.20,19.54,22.81,14.52,45.90,1031.70,2059.89,3571.63,3130.07,3585.69,600.02,619.12,5.18,0000 0000 0000 0000 000000
2017-10-20 08:46:10,0.05,0.05,0.00,16.18,19.53,22.81,14.37,45.79,1031.68,2059.97,3570.53,3129.61,3585.01,599.68,618.82,5.23,0000 0000 0000 0000 000000
2017-10-20 08:51:11,0.03,0.06,0.00,16.17,19.52,22.78,14.46,45.73,1031.64,2059.96,3569.49,3129.00,3584.25,599.89,619.05,5.28,0000 0000 0000 0000 000000
2017-10-20 08:56:13,0.03,0.06,0.00,16.14,19.50,22.72,14.48,45.89,1031.70,2059.98,3568.66,3128.39,3583.99,599.99,619.20,5.33,0000 0000 0000 0000 000000
2017-10-20 09:01:14,0.02,0.06,0.00,16.14,19.49,22.76,14.47,45.75,1031.74,2059.98,3567.94,3128.00,3583.30,600.05,619.23,5.39,0000 0000 0000 0000 000000
2017-10-20 09:06:15,0.01,0.06,0.00,16.13,19.48,22.81,14.50,45.77,1031.75,2059.99,3567.16,3127.83,3583.00,599.87,619.14,5.44,0000 0000 0000 0000 000000
2017-10-20 09:11:17,0.03,0.06,0.00,16.13,19.47,22.77,14.41,45.83,1031.75,2059.99,3566.50,3127.10,3582.88,599.42,618.80,5.49,0000 0000 0000 0000 000000
2017-10-20 09:16:18,0.01,0.06,0.00,16.09,19.45,22.75,14.45,45.86,1031.75,2059.99,3565.99,3127.00,3582.17,599.83,619.22,5.54,0000 0000 0000 0000 000000
2017-10-20 09:21:19,0.03,0.07,0.00,16.06,19.44,22.82,14.52,45.87,1031.75,2059.99,3565.22,3126.63,3581.99,600.00,619.43,5.59,0000 0000 0000 0000 000000
2017-10-20 09:26:20,0.03,0.07,0.00,16.06,19.43,22.76,14.53,45.84,1031.75,2060.00,3564.54,3126.02,3581.55,600.03,619.40,5.64,0000 0000 0000 0000 000000
2017-10-20 09:31:21,0.01,0.07,0.00,16.04,19.42,22.79,14.53,46.02,1031.75,2060.02,3563.91,3125.87,3581.02,600.23,619.54,5.69,0000 0000 0000 0000 000000
2017-10-20 09:36:23,0.03,0.07,0.00,16.03,19.40,22.75,14.41,46.00,1031.75,2060.03,3563.09,3125.13,3580.79,599.93,619.42,5.74,0000 0000 0000 0000 000000
2017-10-20 09:41:24,0.01,0.07,0.00,16.01,19.39,22.70,14.44,45.93,1031.75,2060.02,3562.68,3124.99,3580.06,599.70,619.23,5.79,0000 0000 0000 0000 000000
2017-10-20 09:46:25,0.01,0.07,0.00,15.98,19.38,22.69,14.41,45.81,1031.75,2060.01,3562.10,3124.83,3579.67,599.65,619.30,5.84,0000 0000 0000 0000 000000
2017-10-20 09:51:27,0.03,0.07,0.00,15.95,19.37,22.67,14.49,45.92,1031.75,2060.01,3561.53,3124.13,3579.17,600.12,619.70,5.89,0000 0000 0000 0000 000000
2017-10-20 09:56:28,0.01,0.07,0.00,15.95,19.35,22.70,14.50,46.01,1031.75,2060.05,3560.99,3124.00,3579.00,599.78,619.40,5.94,0000 0000 0000 0000 000000
2017-10-20 10:01:29,0.02,0.07,0.00,15.95,19.34,22.68,14.51,46.02,1031.73,2060.04,3560.37,3123.90,3578.82,600.10,619.76,5.99,0000 0000 0000 0000 000000
2017-10-20 10:06:31,0.04,0.08,0.00,15.94,19.32,22.65,14.46,45.88,1031.74,2060.09,3559.97,3123.18,3578.11,599.80,619.67,6.04,0000 0000 0000 0000 000000
2017-10-20 10:11:32,0.03,0.08,0.00,15.92,19.31,22.62,14.46,45.99,1031.72,2060.24,3559.22,3123.00,3578.00,599.57,619.31,6.09,0000 0000 0000 0000 000000
2017-10-20 10:16:33,0.01,0.08,0.00,15.92,19.29,22.55,14.46,45.88,1031.73,2060.25,3558.62,3122.87,3577.72,599.71,619.35,6.14,0000 0000 0000 0000 000000
2017-10-20 10:21:35,0.09,0.08,0.00,15.92,19.28,22.53,14.45,45.88,1031.70,2060.78,3558.00,3122.14,3577.20,600.16,619.84,6.19,0000 0000 0000 0000 000000
2017-10-20 10:26:36,0.02,0.09,0.00,15.89,19.27,22.54,14.45,45.99,1031.71,2060.96,3557.33,3122.00,3577.01,599.74,619.46,6.24,0000 0000 0000 0000 000000
2017-10-20 10:31:37,0.01,0.09,0.00,15.87,19.26,22.50,14.52,46.05,1031.74,2060.98,3556.67,3121.85,3576.88,600.19,620.01,6.29,0000 0000 0000 0000 000000
2017-10-20 10:36:38,0.07,0.09,0.00,15.85,19.24,22.50,14.49,45.94,1031.70,2060.98,3554.87,3120.96,3575.89,599.66,619.46,6.34,0000 0000 0000 0000 000000
2017-10-20 10:41:39,0.04,0.09,0.00,15.84,19.24,22.46,14.47,46.01,1031.71,2060.98,3553.51,3120.14,3575.09,599.85,619.71,6.39,0000 0000 0000 0000 000000
2017-10-20 10:46:40,0.00,0.09,0.00,15.83,19.22,22.44,14.50,45.90,1031.71,2060.99,3552.97,3120.00,3574.99,599.88,619.78,6.44,0000 0000 0000 0000 000000
2017-10-20 10:51:42,0.03,0.09,0.00,15.82,19.22,22.41,14.35,45.88,1031.64,2060.99,3552.16,3119.76,3574.45,599.44,619.27,6.49,0000 0000 0000 0000 000000
2017-10-20 10:56:43,0.03,0.10,0.00,15.81,19.20,22.43,14.51,45.95,1031.63,2060.99,3551.43,3119.04,3573.98,600.19,620.12,6.54,0000 0000 0000 0000 000000
2017-10-20 11:01:44,0.01,0.10,0.00,15.79,19.19,22.39,14.47,45.97,1031.55,2060.99,3550.95,3118.97,3573.50,599.84,619.52,6.59,0000 0000 0000 0000 000000
2017-10-20 11:06:45,0.03,0.10,0.00,15.78,19.19,22.46,14.53,46.07,1031.45,2060.99,3550.13,3118.41,3572.96,600.31,620.13,6.64,0000 0000 0000 0000 000000
2017-10-20 11:11:47,0.02,0.10,0.00,15.75,19.17,22.43,14.55,46.12,1031.48,2060.99,3549.99,3118.01,3572.19,599.86,619.82,6.69,0000 0000 0000 0000 000000
2017-10-20 11:16:48,0.01,0.10,0.00,15.75,19.16,22.39,14.50,46.14,1031.40,2060.99,3549.42,3117.99,3572.00,600.36,620.23,6.74,0000 0000 0000 0000 000000
2017-10-20 11:21:49,0.02,0.10,0.00,15.73,19.14,22.41,14.57,46.10,1031.32,2060.99,3548.92,3117.59,3571.77,600.35,620.28,6.79,0000 0000 0000 0000 000000
2017-10-20 11:26:51,0.02,0.10,0.00,15.72,19.13,22.41,14.46,46.02,1031.29,2060.99,3548.13,3117.03,3571.06,599.69,619.74,6.84,0000 0000 0000 0000 000000
2017-10-20 11:31:52,0.01,0.10,0.00,15.71,19.12,22.36,14.41,46.08,1031.38,2060.99,3547.64,3116.99,3570.99,599.95,619.92,6.89,0000 0000 0000 0000 000000
2017-10-20 11:36:53,0.03,0.10,0.00,15.69,19.09,22.37,14.46,46.17,1031.38,2061.00,3546.94,3116.58,3570.60,599.93,619.92,6.94,0000 0000 0000 0000 000000
2017-10-20 11:41:54,0.02,0.11,0.00,15.69,19.07,22.35,14.53,46.15,1031.39,2061.02,3546.11,3116.02,3570.03,600.19,620.25,6.99,0000 0000 0000 0000 000000
2017-10-20 11:46:56,0.00,0.11,0.00,15.66,19.06,22.37,14.43,46.05,1031.40,2061.03,3545.75,3115.99,3569.99,599.64,619.70,7.04,0000 0000 0000 0000 000000
2017-10-20 11:51:57,0.02,0.11,0.00,15.66,19.04,22.36,14.40,46.02,1031.39,2061.12,3545.02,3115.83,3569.99,599.93,620.00,7.09,0000 0000 0000 0000 000000
2017-10-20 11:56:59,0.09,0.11,0.00,15.64,19.02,22.31,14.44,45.91,1031.36,2061.66,3544.24,3115.13,3569.94,599.66,619.82,7.14,0000 0000 0000 0000 000000
2017-10-20 12:02:00,0.02,0.11,0.00,15.62,19.01,22.30,14.55,45.99,1031.34,2061.94,3544.02,3115.01,3569.19,600.01,620.07,7.19,0000 0000 0000 0000 000000
2017-10-20 12:07:01,0.00,0.12,0.00,15.61,18.99,22.29,14.58,46.02,1031.30,2061.94,3543.99,3115.00,3569.00,599.68,619.94,7.24,0000 0000 0000 0000 000000
2017-10-20 12:12:02,0.02,0.12,0.00,15.59,18.98,22.23,14.50,46.02,1031.27,2061.97,3543.37,3114.96,3568.93,599.91,619.98,7.29,0000 0000 0000 0000 000000
2017-10-20 12:17:04,0.02,0.12,0.00,15.58,18.97,22.25,14.48,45.97,1031.27,2061.96,3543.01,3114.57,3568.13,599.94,620.04,7.34,0000 0000 0000 0000 000000
2017-10-20 12:22:05,0.01,0.12,0.00,15.56,18.94,22.27,14.47,45.96,1031.27,2061.97,3542.95,3114.09,3568.04,599.89,620.05,7.39,0000 0000 0000 0000 000000
2017-10-20 12:27:06,0.01,0.12,0.00,15.55,18.93,22.23,14.51,46.07,1031.27,2061.98,3542.29,3114.01,3567.99,600.19,620.44,7.44,0000 0000 0000 0000 000000
2017-10-20 12:32:08,0.00,0.12,0.00,15.55,18.92,22.21,14.54,45.96,1031.27,2061.98,3542.01,3113.99,3567.96,600.08,620.32,7.49,0000 0000 0000 0000 000000
2017-10-20 12:37:09,0.00,0.12,0.00,15.52,18.90,22.22,14.47,45.87,1031.26,2061.98,3541.89,3113.98,3567.78,599.63,619.93,7.54,0000 0000 0000 0000 000000
2017-10-20 12:42:10,0.02,0.12,0.00,15.50,18.89,22.25,14.48,45.90,1031.26,2061.99,3541.14,3113.80,3567.27,600.12,620.39,7.59,0000 0000 0000 0000 000000
2017-10-20 12:47:12,0.01,0.12,0.00,15.49,18.87,22.20,14.48,46.00,1031.26,2061.99,3540.97,3113.12,3567.01,599.99,620.26,7.64,0000 0000 0000 0000 000000
2017-10-20 12:52:13,0.01,0.12,0.00,15.49,18.85,22.17,14.55,46.02,1031.26,2061.99,3540.36,3113.00,3566.97,600.25,620.64,7.70,0000 0000 0000 0000 000000
2017-10-20 12:57:14,0.00,0.12,0.00,15.47,18.83,22.12,14.48,45.92,1031.26,2062.00,3540.02,3112.99,3566.71,599.99,620.42,7.75,0000 0000 0000 0000 000000
2017-10-20 13:02:15,0.01,0.12,0.00,15.44,18.82,22.15,14.51,45.92,1031.25,2062.00,3539.89,3112.95,3566.08,600.07,620.63,7.80,0000 0000 0000 0000 000000